Location: Sihaung
(22.8641°N, 94.0549°E)
Time: 17:18:18
(UTC+00:00)

Cosmos 2322 - Pass Details

Date: 03 March 2021
Orbit: 841 x 853 km, 71.0° (Epoch: 13 April)

Event Time Altitude Azimuth Distance (km) Brightness Sun altitude
Rises 23:36:49 0° 343° (NNW) 3,405 6.6 -6.8°
Reaches altitude 10° 23:39:17 10° 345° (NNW) 2,466 5.9 -6.2°
Maximum altitude 23:44:57 80° 72° (ENE) 857 3.9 -4.9°
Drops below altitude 10° 23:50:35 10° 160° (SSE) 2,451 6.5 -3.6°
Sets 23:53:01 0° 161° (SSE) 3,382 7.2 -3.1°
